TimeCST,TemperatureF,Dew PointF,Humidity,Sea Level PressureIn,VisibilityMPH,Wind Direction,Wind SpeedMPH,Gust SpeedMPH,PrecipitationIn,Events,Conditions,WindDirDegrees,DateUTC
12:15 AM,60.8,46.4,59,30.09,10.0,NNE,6.9,-,N/A,,Clear,20,2013-02-14 06:15:00
12:35 AM,60.8,46.4,59,30.09,10.0,NNE,5.8,-,N/A,,Clear,20,2013-02-14 06:35:00
12:55 AM,60.8,46.4,59,30.09,10.0,NNE,6.9,12.7,N/A,,Mostly Cloudy,30,2013-02-14 06:55:00
1:15 AM,60.8,46.4,59,30.09,10.0,NNE,6.9,12.7,N/A,,Mostly Cloudy,30,2013-02-14 07:15:00
1:35 AM,60.8,46.4,59,30.09,10.0,NNE,5.8,-,N/A,,Partly Cloudy,30,2013-02-14 07:35:00
1:55 AM,60.8,46.4,59,30.10,10.0,North,4.6,-,N/A,,Clear,360,2013-02-14 07:55:00
2:15 AM,60.8,46.4,59,30.08,10.0,NNE,4.6,11.5,N/A,,Clear,20,2013-02-14 08:15:00
2:35 AM,60.8,46.4,59,30.08,10.0,NNE,5.8,11.5,N/A,,Clear,20,2013-02-14 08:35:00
2:55 AM,60.8,44.6,55,30.07,10.0,NNE,6.9,-,N/A,,Clear,20,2013-02-14 08:55:00
3:15 AM,60.8,44.6,55,30.07,10.0,NNE,8.1,-,N/A,,Clear,30,2013-02-14 09:15:00
3:35 AM,60.8,44.6,55,30.06,10.0,NNE,6.9,-,N/A,,Clear,20,2013-02-14 09:35:00
3:55 AM,60.8,46.4,59,30.06,10.0,Variable,4.6,-,N/A,,Clear,0,2013-02-14 09:55:00
4:15 AM,60.8,46.4,59,30.05,10.0,North,4.6,11.5,N/A,,Clear,10,2013-02-14 10:15:00
4:35 AM,60.8,46.4,59,30.06,10.0,North,5.8,-,N/A,,Clear,10,2013-02-14 10:35:00
4:55 AM,60.8,44.6,55,30.07,10.0,NNE,6.9,-,N/A,,Clear,20,2013-02-14 10:55:00
5:15 AM,60.8,46.4,59,30.07,10.0,NNE,6.9,-,N/A,,Clear,20,2013-02-14 11:15:00
5:35 AM,60.8,46.4,59,30.07,10.0,NNE,4.6,11.5,N/A,,Clear,20,2013-02-14 11:35:00
5:55 AM,60.8,44.6,55,30.07,10.0,NNE,8.1,-,N/A,,Clear,30,2013-02-14 11:55:00
6:15 AM,60.8,44.6,55,30.07,10.0,NNE,6.9,-,N/A,,Clear,30,2013-02-14 12:15:00
6:35 AM,60.8,44.6,55,30.08,10.0,NNE,5.8,-,N/A,,Clear,20,2013-02-14 12:35:00
6:55 AM,60.8,44.6,55,30.08,10.0,NNE,5.8,-,N/A,,Clear,30,2013-02-14 12:55:00
7:15 AM,60.8,44.6,55,30.09,10.0,NNE,6.9,-,N/A,,Clear,20,2013-02-14 13:15:00
7:35 AM,62.6,46.4,55,30.10,10.0,Variable,6.9,-,N/A,,Clear,0,2013-02-14 13:35:00
7:55 AM,62.6,44.6,52,30.11,-9999.0,NNE,6.9,-,N/A,,Clear,20,2013-02-14 13:55:00
8:15 AM,62.6,44.6,52,30.11,10.0,NNE,5.8,11.5,N/A,,Clear,20,2013-02-14 14:15:00
8:35 AM,62.6,44.6,52,30.12,10.0,NNE,6.9,-,N/A,,Clear,30,2013-02-14 14:35:00
8:55 AM,62.6,46.4,55,30.13,10.0,NNE,5.8,-,N/A,,Clear,20,2013-02-14 14:55:00
9:15 AM,62.6,46.4,55,30.13,10.0,NNE,5.8,-,N/A,,Clear,20,2013-02-14 15:15:00
9:35 AM,62.6,46.4,55,30.14,10.0,NNE,5.8,-,N/A,,Clear,20,2013-02-14 15:35:00
9:55 AM,62.6,46.4,55,30.14,10.0,NNE,5.8,-,N/A,,Clear,20,2013-02-14 15:55:00
10:15 AM,62.6,46.4,55,30.14,10.0,Variable,5.8,-,N/A,,Clear,0,2013-02-14 16:15:00
10:35 AM,62.6,46.4,55,30.15,10.0,NNE,5.8,-,N/A,,Clear,20,2013-02-14 16:35:00
10:55 AM,62.6,44.6,52,30.15,10.0,NNE,5.8,-,N/A,,Clear,20,2013-02-14 16:55:00
11:15 AM,62.6,44.6,52,30.14,10.0,NNE,5.8,-,N/A,,Clear,30,2013-02-14 17:15:00
11:35 AM,62.6,44.6,52,30.14,10.0,NNE,6.9,-,N/A,,Clear,20,2013-02-14 17:35:00
11:55 AM,62.6,42.8,48,30.14,10.0,NNE,9.2,-,N/A,,Clear,30,2013-02-14 17:55:00
12:15 PM,64.4,44.6,49,30.13,10.0,North,4.6,-,N/A,,Clear,10,2013-02-14 18:15:00
12:35 PM,62.6,46.4,55,30.12,10.0,NNE,3.5,-,N/A,,Clear,20,2013-02-14 18:35:00
12:55 PM,64.4,46.4,52,30.11,10.0,NE,6.9,-,N/A,,Clear,40,2013-02-14 18:55:00
1:15 PM,64.4,46.4,52,30.10,10.0,Calm,Calm,-,N/A,,Clear,0,2013-02-14 19:15:00
1:35 PM,64.4,46.4,52,30.09,10.0,NNE,4.6,-,N/A,,Clear,20,2013-02-14 19:35:00
1:55 PM,64.4,46.4,52,30.08,10.0,NNE,4.6,-,N/A,,Clear,20,2013-02-14 19:55:00
2:15 PM,64.4,44.6,49,30.07,10.0,NNE,4.6,-,N/A,,Clear,20,2013-02-14 20:15:00
2:35 PM,64.4,44.6,49,30.07,10.0,NNE,5.8,-,N/A,,Clear,30,2013-02-14 20:35:00
2:55 PM,64.4,44.6,49,30.06,10.0,NNE,6.9,-,N/A,,Clear,30,2013-02-14 20:55:00
3:15 PM,64.4,44.6,49,30.05,10.0,NNE,8.1,-,N/A,,Clear,30,2013-02-14 21:15:00
3:35 PM,64.4,44.6,49,30.05,10.0,NE,8.1,-,N/A,,Clear,40,2013-02-14 21:35:00
3:55 PM,64.4,42.8,45,30.06,10.0,NNE,8.1,-,N/A,,Clear,30,2013-02-14 21:55:00
4:15 PM,64.4,44.6,49,30.06,10.0,NE,10.4,-,N/A,,Clear,40,2013-02-14 22:15:00
4:35 PM,64.4,44.6,49,30.05,10.0,NE,10.4,-,N/A,,Clear,40,2013-02-14 22:35:00
4:55 PM,64.4,42.8,45,30.05,10.0,NE,9.2,-,N/A,,Clear,40,2013-02-14 22:55:00
5:15 PM,64.4,42.8,45,30.05,10.0,NE,9.2,-,N/A,,Clear,40,2013-02-14 23:15:00
5:35 PM,64.4,42.8,45,30.05,10.0,NE,11.5,-,N/A,,Clear,40,2013-02-14 23:35:00
5:55 PM,64.4,44.6,49,30.05,10.0,NE,11.5,-,N/A,,Clear,50,2013-02-14 23:55:00
6:15 PM,64.4,42.8,45,30.05,10.0,NE,11.5,-,N/A,,Clear,50,2013-02-15 00:15:00
6:35 PM,64.4,44.6,49,30.06,10.0,NE,12.7,-,N/A,,Clear,50,2013-02-15 00:35:00
6:55 PM,64.4,44.6,49,30.05,10.0,ENE,12.7,-,N/A,,Clear,60,2013-02-15 00:55:00
7:15 PM,64.4,42.8,45,30.06,10.0,ENE,10.4,-,N/A,,Clear,70,2013-02-15 01:15:00
7:35 PM,64.4,44.6,49,30.05,10.0,ENE,11.5,-,N/A,,Clear,70,2013-02-15 01:35:00
7:55 PM,64.4,42.8,45,30.06,10.0,ENE,12.7,-,N/A,,Clear,60,2013-02-15 01:55:00
8:15 PM,64.4,44.6,49,30.06,10.0,ENE,11.5,-,N/A,,Clear,70,2013-02-15 02:15:00
8:35 PM,64.4,44.6,49,30.06,10.0,ENE,12.7,-,N/A,,Clear,70,2013-02-15 02:35:00
8:55 PM,64.4,46.4,52,30.06,10.0,ENE,13.8,-,N/A,,Clear,70,2013-02-15 02:55:00
9:15 PM,64.4,46.4,52,30.06,10.0,East,13.8,-,N/A,,Clear,80,2013-02-15 03:15:00
9:35 PM,64.4,46.4,52,30.07,10.0,East,13.8,-,N/A,,Clear,80,2013-02-15 03:35:00
9:55 PM,64.4,48.2,56,30.07,10.0,East,13.8,-,N/A,,Clear,90,2013-02-15 03:55:00
10:15 PM,64.4,46.4,52,30.07,10.0,East,12.7,-,N/A,,Clear,80,2013-02-15 04:15:00
10:35 PM,64.4,46.4,52,30.08,10.0,East,12.7,-,N/A,,Clear,90,2013-02-15 04:35:00
10:55 PM,64.4,48.2,56,30.08,10.0,East,12.7,-,N/A,,Clear,90,2013-02-15 04:55:00
11:15 PM,64.4,48.2,56,30.06,10.0,East,15.0,-,N/A,,Clear,80,2013-02-15 05:15:00
11:35 PM,64.4,48.2,56,30.06,10.0,East,13.8,-,N/A,,Clear,90,2013-02-15 05:35:00
11:55 PM,64.4,50.0,59,30.06,10.0,East,12.7,-,N/A,,Clear,90,2013-02-15 05:55:00